Weather History for San Angelo, TX

Change the Weather History Date:

Saturday, March 23, 2013

  Actual Average Record
Temperature  
Mean Temperature 67 °F 60 °F  
Max Temperature 86 °F 73 °F 94 °F (1934)
Min Temperature 48 °F 46 °F 24 °F (1952)
Degree Days  
Heating Degree Days 0 7  
Month to date heating degree days 125 211  
Since 1 July heating degree days 1727 2172  
Cooling Degree Days 2 1  
Month to date cooling degree days 39 20  
Year to date cooling degree days 51 25  
Growing Degree Days 17 (Base 50)    
Moisture  
Dew Point 31 °F    
Average Humidity 42    
Maximum Humidity 77    
Minimum Humidity 7    
Precipitation  
Precipitation 0.00 in 0.05 in 0.93 in (1969)
Month to date precipitation T 1.13  
Year to date precipitation 1.82 3.41  
Snow  
Snow 0.00 in 0.00 in 0.00 in (2002)
Month to date snowfall 0.0 0.1  
Since 1 July snowfall 2.8 2.2  
Snow Depth 0.00 in    
Sea Level Pressure  
Sea Level Pressure 29.71 in    
Wind  
Wind Speed 15 mph (North)    
Max Wind Speed 38 mph    
Max Gust Speed 47 mph    
Visibility 9 miles    
Events      
T = Trace of Precipitation, MM = Missing Value Source: NWS Daily Summary

Daily Weather History Graph

Daily Weather History Graph

Search for Another Location

Airport:

Trip Planner

Search our weather history database for the weather conditions in past years. The results will help you decide how hot, cold, wet, or windy it might be!

Date:

Astronomy

Mar. 23, 2013 Rise Set
Actual Time 7:41 AM CDT 7:55 PM CDT
Civil Twilight 7:17 AM CDT 8:19 PM CDT
Nautical Twilight 6:49 AM CDT 8:48 PM CDT
Astronomical Twilight 6:20 AM CDT 9:16 PM CDT
Moon 4:35 PM CDT (3/23) 5:06 AM CDT (3/23)
Length of Visible Light 13h 02m
Length of Day
12h 14m
Waxing Gibbous, 85% of the Moon is Illuminated
Mar 23
Waxing Gibbous
Mar 27
Full
Apr 2
Last Quarter
Apr 10
New
Apr 18
First Quarter

Hourly Weather History & Observations

Time (CDT) Temp. Dew Point Humidity Pressure Visibility Wind Dir Wind Speed Gust Speed Precip Events Conditions
12:51 AM 50.0 °F 39.9 °F 68% 29.76 in 10.0 mi NE 12.7 mph - N/A   Clear
1:51 AM 48.0 °F 39.9 °F 74% 29.76 in 10.0 mi East 9.2 mph - N/A   Partly Cloudy
2:51 AM 48.9 °F 39.9 °F 71% 29.78 in 10.0 mi ENE 8.1 mph - N/A   Overcast
3:10 AM 48.2 °F 39.2 °F 71% 29.79 in 10.0 mi ENE 13.8 mph - N/A   Overcast
3:43 AM 48.2 °F 39.2 °F 71% 29.77 in 10.0 mi ENE 13.8 mph - N/A   Overcast
3:51 AM 48.9 °F 39.9 °F 71% 29.73 in 10.0 mi East 11.5 mph - N/A   Overcast
4:51 AM 48.9 °F 41.0 °F 74% 29.73 in 10.0 mi ENE 6.9 mph - N/A   Overcast
5:19 AM 48.2 °F 41.0 °F 76% 29.76 in 10.0 mi NE 10.4 mph - N/A   Overcast
5:51 AM 48.9 °F 41.0 °F 74% 29.73 in 10.0 mi ENE 10.4 mph - N/A   Overcast
6:51 AM 48.9 °F 41.0 °F 74% 29.74 in 10.0 mi East 8.1 mph - N/A   Overcast
7:51 AM 50.0 °F 42.1 °F 74% 29.75 in 10.0 mi East 6.9 mph - N/A   Overcast
8:51 AM 50.0 °F 42.1 °F 74% 29.78 in 10.0 mi Calm Calm - N/A   Overcast
10:51 AM 57.0 °F 44.1 °F 62% 29.76 in 10.0 mi South 4.6 mph - N/A   Overcast
11:18 AM 60.8 °F 46.4 °F 59% 29.77 in 10.0 mi South 8.1 mph - N/A   Scattered Clouds
11:51 AM 66.0 °F 46.9 °F 50% 29.74 in 10.0 mi Variable 3.5 mph - N/A   Clear
12:51 PM 73.0 °F 46.9 °F 39% 29.68 in 10.0 mi North 6.9 mph - N/A   Clear
2:01 PM 84.2 °F 19.4 °F 9% 29.67 in 10.0 mi West 26.5 mph 38.0 mph N/A   Clear
3:51 PM 86.0 °F 24.1 °F 10% 29.58 in 10.0 mi West 18.4 mph 36.8 mph N/A   Clear
4:51 PM 84.9 °F 19.0 °F 9% 29.56 in 10.0 mi West 25.3 mph 43.7 mph N/A   Clear
5:51 PM 84.9 °F 16.0 °F 8% 29.55 in 10.0 mi West 20.7 mph 39.1 mph N/A   Clear
6:51 PM 82.9 °F 14.0 °F 8% 29.57 in 10.0 mi West 24.2 mph 39.1 mph N/A   Clear
7:51 PM 80.1 °F 10.9 °F 7% 29.59 in 10.0 mi West 24.2 mph 32.2 mph N/A   Clear
8:51 PM 75.9 °F 10.9 °F 8% 29.62 in 10.0 mi West 12.7 mph - N/A   Clear
9:51 PM 73.0 °F 12.0 °F 10% 29.65 in 10.0 mi WSW 11.5 mph - N/A   Clear
10:13 PM 71.6 °F 6.8 °F 8% 29.77 in 2.5 mi NNW 34.5 mph 43.7 mph N/A   Haze
10:24 PM 68.0 °F 12.2 °F 12% 29.78 in 2.0 mi NNW 34.5 mph 43.7 mph N/A   Haze
10:42 PM 64.4 °F 10.4 °F 12% 29.80 in 3.0 mi NNW 34.5 mph 43.7 mph N/A   Haze
10:51 PM 64.9 °F 12.0 °F 13% 29.78 in 4.0 mi NNW 26.5 mph 47.2 mph N/A   Haze
11:51 PM 62.1 °F 37.9 °F 41% 29.85 in 10.0 mi NNW 27.6 mph 36.8 mph N/A   Overcast